Regional Weather Roundup
Issued by NWS Boston, MA

Current Version | Previous Version | Text Only | Print | Product List | Glossary Off
Versions: 1 2 3 4 5 6 7 8 9 10 11 12 13 14 15 16 17 18 19 20 21 22 23 24 25 26 27 28 29 30 31 32 33 34 35 36 37 38 39 40 41 42 43 44 45 46 47 48 49 50
768 ASUS41 KBOX 270810 RWRBOX REGIONAL WEATHER ROUNDUP NATIONAL WEATHER SERVICE BOSTON/NORTON MA 400 AM EDT SUN MAY 27 2018 NOTE: "FAIR" INDICATES FEW OR NO CLOUDS BELOW 12,000 FEET WITH NO SIGNIFICANT WEATHER AND/OR OBSTRUCTIONS TO VISIBILITY. MAZALL-270900- EASTERN MASSACHUSETTS CITY SKY/WX TMP DP RH WIND PRES REMARKS BOSTON CLOUDY 57 55 93 NE16 30.06R BEVERLY CLOUDY 57 56 96 E7 30.08R LAWRENCE CLOUDY 60 54 80 E12 30.10R BEDFORD CLOUDY 58 56 93 NE9 30.05R BLUE HILL N/A 55 55 100 NE15G22 30.03R NORWOOD CLOUDY 60 57 89 NE12G17 30.02R MARSHFIELD FAIR 57 55 94 E10 30.03S PLYMOUTH FAIR 60 55 83 E12 30.01R TAUNTON FAIR 64 58 80 VRB5G21 29.98S NEW BEDFORD FAIR 62 59 90 E8 29.97S $$ MAZALL-270900- CAPE COD AND THE ISLANDS CITY SKY/WX TMP DP RH WIND PRES REMARKS FALMOUTH FAIR 61 57 88 E14G21 29.99F HYANNIS FAIR 60 56 86 E9G23 29.95F CHATHAM FAIR 57 53 86 E13G23 30.02R PROVINCETOWN FAIR 55 52 89 E17G23 30.03R NANTUCKET CLOUDY 54 54 100 E16G28 29.97F MARTHAS VNYRD FAIR 58 56 93 E20G26 29.97R $$ MAZALL-270900- CENTRAL AND WESTERN MASSACHUSETTS CITY SKY/WX TMP DP RH WIND PRES REMARKS WORCESTER CLOUDY 59 59 100 NE15G23 30.04R FOG FITCHBURG LGT RAIN 58 58 100 E12G22 30.08R FOG ORANGE CLOUDY 64 62 93 E8 30.04S SPRINGFIELD CLOUDY 66 61 82 NE7 29.99R WESTFIELD MOCLDY 67 62 84 NE8 30.00R NORTH ADAMS MOCLDY 67 60 78 E13G22 29.99R PITTSFIELD CLOUDY 66 59 78 VRB5 29.99R $$ RIZALL-270900- RHODE ISLAND CITY SKY/WX TMP DP RH WIND PRES REMARKS PROVIDENCE FAIR 65 59 81 NE9 29.99S NEWPORT FAIR 64 59 83 E7 29.95R BLOCK ISLAND FAIR 58 56 93 NE13G20 29.95R SMITHFIELD CLOUDY 62 58 86 MISG 30.02R WESTERLY FAIR 67 61 81 NE12 29.95R $$ CTZALL-270900- CONNECTICUT CITY SKY/WX TMP DP RH WIND PRES REMARKS BRADLEY INTL MOCLDY 68 60 75 N10 29.98R HARTFORD FAIR 69 60 73 NE9 29.96R BRIDGEPORT FAIR 62 59 90 E7 29.94R DANBURY MOCLDY 68 60 75 E7 29.95R GROTON FAIR 67 60 78 NE14G24 29.94R NEW HAVEN FAIR 69 60 73 NE6 29.95R CHESTER FAIR 68 61 77 NE8 29.95R MERIDEN FAIR 68 59 73 NE5 29.96R WILLIMANTIC FAIR 67 60 78 NE9 29.97S OXFORD MOCLDY 67 59 75 NE12G17 29.97R $$ MEZ002-015-021-024-NHZ003-005-008-011-012-014-VTZ005-008-270900- NORTHERN NEW ENGLAND CITY SKY/WX TMP DP RH WIND PRES REMARKS PORTLAND ME CLOUDY 54 47 77 E17G28 30.16R BANGOR ME FAIR 47 41 80 NE5 30.20R CONCORD NH LGT RAIN 56 51 84 CALM 30.11R MANCHESTER NH CLOUDY 59 53 80 CALM 30.09R NASHUA NH CLOUDY 58 53 84 E9 30.10R PORTSMOUTH NH LGT RAIN 55 54 96 NE12 30.09 JAFFREY NH CLOUDY 55 53 93 MISG 30.10R KEENE NH LGT RAIN 60 55 83 E15G26 30.05R BURLINGTON VT FAIR 64 58 80 SE7 29.98R MT. WASHINGTON FOG 34 34 100 SE16 N/A VSB 1/8 WCI 23 $$ NYZ052-076-270900- EASTERN NEW YORK CITY SKY/WX TMP DP RH WIND PRES REMARKS ALBANY CLOUDY 65 60 84 CALM 29.96R NEW YORK CITY CLOUDY 68 62 81 NE9 29.90R $$ ANZALL-270900- MARINE OBSERVATIONS STATION/POSITION TIME TEMP WIND PRES VSBY WAVE AIR SEA DIR/SP/G HT/PER (UTC) (F) (DEG/KT/KT) (MB) (MI) (FT/S) BOSTON BUOY 0750 56 57 60/ 12/ 14 1017.7R 2/ 3 BUZZARDS BAY 0700 59 60/ 24/ 25 1014.6R NANTUCKET SOUND 0750 55 57 70/ 21/ 27 1014.8R 2/ 4 MASS BAY-STELLWA 0704 55 54 1015.6F 2/ 3 ISLE OF SHOALS 0800 54 50/ 22/ 24 1017.6F S OF BLOCK IS 0743 53 N/A 3/ 6 $$ ......................KEY......................... SKY/WX - SKY CONDITION/PRESENT WEATHER TMP - TEMPERATURE IN FAHRENHEIT DWPT - DEWPOINT IN FAHRENHEIT RH - RELATIVE HUMIDITY IN PERCENT WIND - DIRECTION AND SPEED IN MPH PRES - MEAN SEA LEVEL PRESSURE IN INCHES OF HG WCI - WIND CHILL INDEX VSB - VISIBILITY IN MILES HX - HEAT INDEX TC - TEMPERATURE IN CELSIUS VRB - VARIABLE WIND DIRECTION N/A - NOT AVAILABLE

USA.gov is the U.S. government's official web portal to all federal, state and local government web resources and services.